Location: Anna District 4 Election Precinct
(37.4833°N, 89.2195°W)
Time: 14:57:07
(UTC+00:00)

Aureole 3 Rocket - Pass Details

Date: 29 October 2020
Orbit: 399 x 1739 km, 82.5° (Epoch: 03 December)

Event Time Altitude Azimuth Distance (km) Brightness Sun altitude
Rises 23:23:04 0° 171° (S) 2,538 6.3 -5.0°
Reaches altitude 10° 23:24:57 10° 164° (SSE) 1,768 5.4 -5.4°
Maximum altitude 23:28:38 47° 90° (E) 837 3.4 -6.1°
Drops below altitude 10° 23:33:37 10° 17° (NNE) 2,402 5.8 -7.0°
Sets 23:36:32 0° 13° (NNE) 3,574 6.7 -7.6°
